Location: Ferchesar
(52.6477°N, 12.4298°E)
Time: 15:42:10
(UTC+01:00)

deb Explorer IX - Pass Details

Date: 13 December 2021
Orbit: 544 x 1082 km, 38.8° (Epoch: 18 January)

Event Time Altitude Azimuth Distance (km) Brightness Sun altitude
Rises 09:08:25 0° 246° (WSW) 3,429 ? 5.1°
Reaches altitude 10° 09:11:54 10° 228° (SW) 2,374 ? 5.4°
Maximum altitude 09:15:27 17° 188° (S) 1,791 ? 5.7°
Drops below altitude 10° 09:18:43 10° 147° (SSE) 2,138 ? 6.0°
Sets 09:21:37 0° 127° (SE) 2,955 ? 6.3°
